This demonstration page uses our WeatherBlox Daily Observations layout. Learn more.

Left ArrowRight Arrow

Hourly Observations for July 12, 2021

Temp ( °F °C ) Dew Point ( °F °C ) Humidity (%) Winds ( mph kmh ) Pressure ( in mb ) Visibility ( mi km ) Precip ( " mm )
12:15 am 00:15 Clear 64 17.8 60 15.5 86 86 Calm 30.07 1018 10 16 0.00 0.00
12:35 am 00:35 Clear 63 17.1 60 15.7 92 92 Calm 30.07 1018 10 16 0.00 0.00
12:55 am 00:55 Clear 63 17.4 59 15 86 86 Calm 30.07 1018 10 16 0.00 0.00
1:15 am 01:15 Clear 62 16.5 59 14.8 90 90 Calm 30.08 1018 10 16 0.00 0.00
1:35 am 01:35 Clear 63 17 59 14.8 87 87 Calm 30.06 1018 10 16 0.00 0.00
1:55 am 01:55 Clear 62 16.5 59 14.9 90 90 Calm 30.07 1018 10 16 0.00 0.00
2:15 am 02:15 Clear 62 16.5 58 14.7 89 89 Calm 30.06 1018 10 16 0.00 0.00
2:35 am 02:35 Clear 61 16.1 58 14.3 89 89 SW 3 6 30.06 1018 10 16 0.00 0.00
2:55 am 02:55 Clear 60 15.4 57 14 91 91 Calm 30.07 1018 10 16 0.00 0.00
3:15 am 03:15 Clear 61 16 58 14.3 90 90 Calm 30.06 1018 10 16 0.00 0.00
3:35 am 03:35 Clear 58 14.7 56 13.6 93 93 Calm 30.07 1018 10 16 0.00 0.00
3:55 am 03:55 Clear 58 14.2 56 13.5 96 96 Calm 30.08 1018 10 16 0.00 0.00
4:15 am 04:15 Clear 58 14.2 56 13.5 96 96 Calm 30.07 1018 10 16 0.00 0.00
4:35 am 04:35 Clear 58 14.2 56 13.5 96 96 Calm 30.07 1018 10 16 0.00 0.00
4:55 am 04:55 Clear 58 14.2 56 13.4 95 95 Calm 30.06 1018 10 16 0.00 0.00
5:15 am 05:15 Clear 57 13.7 55 13 96 96 Calm 30.07 1018 10 16 0.00 0.00
5:35 am 05:35 Clear 56 13.5 55 12.6 94 94 Calm 30.07 1018 10 16 0.00 0.00
5:55 am 05:55 Clear 57 14 56 13.3 96 96 Calm 30.07 1018 10 16 0.00 0.00
6:15 am 06:15 Clear 57 14.1 56 13.4 96 96 Calm 30.07 1018 10 16 0.00 0.00
6:35 am 06:35 Sunny 58 14.2 56 13.3 94 94 Calm 30.08 1018 10 16 0.00 0.00
6:55 am 06:55 Sunny 60 15.3 57 13.9 91 91 W 3 6 30.07 1018 10 16 0.00 0.00
7:15 am 07:15 Sunny 60 15.8 57 14.1 90 90 Calm 30.06 1018 10 16 0.00 0.00
7:35 am 07:35 Sunny 62 16.7 58 14.5 87 87 Calm 30.06 1018 10 16 0.00 0.00
7:55 am 07:55 Sunny 63 17.2 59 15.1 88 88 Calm 30.06 1018 10 16 0.00 0.00
8:15 am 08:15 Sunny 65 18.3 60 15.3 83 83 W 3 6 30.05 1018 10 16 0.00 0.00
8:35 am 08:35 Sunny 66 19.1 61 15.9 82 82 Calm 30.04 1017 10 16 0.00 0.00
8:55 am 08:55 Sunny 69 20.4 60 15.6 74 74 Calm 30.03 1017 10 16 0.00 0.00
9:15 am 09:15 Sunny 70 21 60 15.8 72 72 SW 3 6 30.03 1017 10 16 0.00 0.00
9:35 am 09:35 Sunny 71 21.5 60 15.7 70 70 SW 5 7 30.02 1017 10 16 0.00 0.00
9:55 am 09:55 Sunny 72 22 61 15.9 68 68 SW 5 7 30.03 1017 10 16 0.00 0.00
10:15 am 10:15 Sunny 73 22.8 60 15.3 63 63 SSW 7 11 30.02 1017 10 16 0.00 0.00
10:35 am 10:35 Sunny 73 22.9 60 15.3 62 62 SSW 6 9 30.02 1017 10 16 0.00 0.00
10:55 am 10:55 Sunny 74 23.2 58 14.3 57 57 SW 7 11 30.01 1016 10 16 0.00 0.00
11:15 am 11:15 Sunny 75 23.8 58 14.5 56 56 SSW 6 9 30.02 1016 10 16 0.00 0.00
11:35 am 11:35 Sunny 75 24.1 59 15 57 57 S 7 11 30.01 1016 10 16 0.00 0.00
11:55 am 11:55 Sunny 75 23.7 59 14.9 58 58 SSW 6 9 30.02 1016 10 16 0.00 0.00
12:15 pm 12:15 Sunny 76 24.5 57 14.1 52 52 S 7 11 30.01 1016 10 16 0.00 0.00
12:35 pm 12:35 Sunny 77 24.9 55 13 48 48 SSW 6 9 30.00 1016 10 16 0.00 0.00
12:55 pm 12:55 Sunny 77 24.9 55 12.9 47 47 S 5 7 30.00 1016 10 16 0.00 0.00
1:15 pm 13:15 Sunny 78 25.4 56 13.4 47 47 SSW 5 7 29.99 1016 10 16 0.00 0.00
1:35 pm 13:35 Sunny 77 25 56 13.4 49 49 SE 5 7 30.00 1016 10 16 0.00 0.00
1:55 pm 13:55 Sunny 78 25.6 55 12.7 45 45 S 3 6 29.98 1015 10 16 0.00 0.00
2:15 pm 14:15 Sunny 78 25.6 55 12.8 45 45 SSE 5 7 29.97 1015 10 16 0.00 0.00
2:35 pm 14:35 Sunny 79 26 56 13.6 46 46 Calm 29.97 1015 10 16 0.00 0.00
2:55 pm 14:55 Sunny 79 26.3 56 13.2 44 44 Calm 29.96 1014 10 16 0.00 0.00
3:15 pm 15:15 Sunny 79 26.3 56 13.2 44 44 Calm 29.96 1014 10 16 0.00 0.00
3:35 pm 15:35 Sunny 80 26.5 56 13.2 44 44 Calm 29.95 1014 10 16 0.00 0.00
3:55 pm 15:55 Sunny 80 26.7 56 13.6 44 44 ESE 5 7 29.94 1014 10 16 0.00 0.00
4:15 pm 16:15 Sunny 80 26.6 57 14.1 46 46 SSE 3 6 29.93 1014 10 16 0.00 0.00
4:35 pm 16:35 Sunny 81 27.1 57 13.7 44 44 S 3 6 29.93 1014 10 16 0.00 0.00
4:55 pm 16:55 Sunny 81 27.2 58 14.5 46 46 SE 5 7 29.93 1014 10 16 0.00 0.00
5:15 pm 17:15 Sunny 81 27 58 14.4 46 46 ESE 6 9 29.93 1014 10 16 0.00 0.00
5:35 pm 17:35 Sunny 81 27.2 58 14.6 46 46 SE 6 9 29.93 1014 10 16 0.00 0.00
5:55 pm 17:55 Sunny 81 27.2 58 14.2 45 45 SE 5 7 29.92 1013 10 16 0.00 0.00
6:15 pm 18:15 Sunny 81 27 58 14.6 47 47 ESE 5 7 29.92 1013 10 16 0.00 0.00
6:35 pm 18:35 Sunny 80 26.5 59 15.2 50 50 E 7 11 29.91 1013 10 16 0.00 0.00
6:55 pm 18:55 Sunny 79 26.1 60 15.8 53 53 E 7 11 29.92 1013 10 16 0.00 0.00
7:15 pm 19:15 Sunny 78 25.7 62 16.4 57 57 E 6 9 29.91 1013 10 16 0.00 0.00
7:35 pm 19:35 Sunny 77 25.1 63 17.2 62 62 E 6 9 29.92 1013 10 16 0.00 0.00
7:55 pm 19:55 Sunny 76 24.5 65 18.5 69 69 ESE 6 9 29.92 1013 10 16 0.00 0.00
8:15 pm 20:15 Sunny 74 23.6 65 18.2 72 72 ESE 5 7 29.93 1013 10 16 0.00 0.00
8:35 pm 20:35 Sunny 73 22.6 65 18.3 77 77 E 6 9 29.95 1014 10 16 0.00 0.00
8:55 pm 20:55 Sunny 71 21.6 64 18 80 80 ESE 6 9 29.94 1014 10 16 0.00 0.00
9:15 pm 21:15 Clear 70 20.9 64 17.6 82 82 ESE 6 9 29.96 1015 10 16 0.00 0.00
9:35 pm 21:35 Clear 68 19.9 64 17.6 87 87 ESE 5 7 29.97 1015 10 16 0.00 0.00
9:55 pm 21:55 Clear 67 19.5 62 16.9 85 85 ESE 5 7 29.98 1015 10 16 0.00 0.00
10:15 pm 22:15 Clear 67 19.5 62 16.5 83 83 ESE 7 11 29.98 1015 10 16 0.00 0.00
10:35 pm 22:35 Clear 65 18.4 62 16.5 89 89 ESE 8 13 30.00 1016 10 16 0.00 0.00
10:55 pm 22:55 Clear 66 19 62 16.6 86 86 SE 7 11 30.00 1016 10 16 0.00 0.00
11:15 pm 23:15 Clear 64 18 61 16.3 90 90 Calm 30.00 1016 10 16 0.00 0.00
11:35 pm 23:35 Clear 64 17.8 61 16.2 90 90 Calm 30.01 1016 10 16 0.00 0.00
11:55 pm 23:55 Clear 64 17.5 61 16.1 92 92 Calm 30.02 1017 10 16 0.00 0.00

Powered by AerisWeather